Location: Detroit
(42.3310°N, 83.0460°W)
Time: 15:01:20
(UTC-04:00)

Courier 1B Rocket - Pass Details

Date: 28 April 2024
Orbit: 920 x 1201 km, 28.2° (Epoch: 19 May)

Event Time Altitude Azimuth Distance (km) Brightness Sun altitude
Exits shadow 04:26:50 27° 196° (SSW) 2,115 6.3 -20.2°
Maximum altitude 04:28:02 28° 181° (S) 2,062 6.3 -20.1°
Drops below altitude 10° 04:34:18 10° 126° (SE) 3,061 7.7 -19.2°
Sets 04:37:29 0° 115° (ESE) 3,987 8.5 -18.8°
